TimeCST,TemperatureF,Dew PointF,Humidity,Sea Level PressureIn,VisibilityMPH,Wind Direction,Wind SpeedMPH,Gust SpeedMPH,PrecipitationIn,Events,Conditions,WindDirDegrees,DateUTC
6:00 AM,78,69,67,29.85,12,East,6.9,,,,Overcast,100,2013-07-26 12:00:00
6:00 AM,78.8,-9999,N/A,29.84,6.2,East,6.9,-,N/A,,Overcast,100,2013-07-26 12:00:00
7:00 AM,80.6,68.0,65,29.83,6.2,East,16.1,-,N/A,,Overcast,100,2013-07-26 13:00:00
8:00 AM,80.6,69.8,70,29.88,6.2,SE,9.2,-,N/A,,Mostly Cloudy,130,2013-07-26 14:00:00
9:00 AM,84,71,56,29.88,12,East,8.1,,,,Overcast,80,2013-07-26 15:00:00
9:00 AM,84.2,69.8,62,29.87,6.2,East,8.1,-,N/A,,Overcast,80,2013-07-26 15:00:00
10:00 AM,86.0,69.8,58,29.87,6.2,East,10.4,-,N/A,,Mostly Cloudy,90,2013-07-26 16:00:00
11:00 AM,89.6,68.0,49,29.88,-9999.0,North,-9999.0,-,N/A,,Mostly Cloudy,0,2013-07-26 17:00:00
12:00 PM,89,69,42,29.89,12,East,12.7,,,,Overcast,90,2013-07-26 18:00:00
12:00 PM,89.6,69.8,52,29.87,6.2,East,12.7,-,N/A,,Scattered Clouds,90,2013-07-26 18:00:00
1:00 PM,86.0,71.6,62,29.88,6.2,East,11.5,-,N/A,,Scattered Clouds,90,2013-07-26 19:00:00
2:00 PM,86.0,73.4,66,29.85,6.2,ENE,11.5,-,N/A,,Mostly Cloudy,70,2013-07-26 20:00:00
3:00 PM,86,73,58,29.86,12,East,8.1,,,,Overcast,80,2013-07-26 21:00:00
3:00 PM,86.0,73.4,66,29.85,6.2,East,8.1,-,N/A,,Overcast,80,2013-07-26 21:00:00
4:00 PM,84.2,69.8,62,29.84,6.2,East,9.2,-,N/A,,Overcast,80,2013-07-26 22:00:00
5:00 PM,86.0,71.6,62,29.84,6.2,East,9.2,-,N/A,,Overcast,80,2013-07-26 23:00:00
6:00 PM,83,72,61,29.86,12,ENE,8.1,,,,Overcast,70,2013-07-27 00:00:00
6:00 PM,82.4,71.6,70,29.85,6.2,ENE,8.1,-,N/A,,Overcast,70,2013-07-27 00:00:00
7:00 PM,82.4,71.6,70,29.87,6.2,ENE,6.9,-,N/A,,Overcast,70,2013-07-27 01:00:00
8:00 PM,82.4,71.6,70,29.87,-9999.0,ENE,13.8,-,N/A,,Clear,60,2013-07-27 02:00:00